35.5°F
Current conditions from King Hill
Updated every 5 minutes
 
  Thursday April 24, 2014

Station Historical Data
Daily Summary for March 2, 2011 Units:  English    Metric   Both
« Previous Day
Next Day »
Daily Weekly Monthly Yearly Custom
  High: Low: Average:
Temperature: 33.2 °F 4.7 °F 23 °F
Dew Point: 23.5 °F -7.6 °F 8.9 °F
Humidity: 86% 44% 55%
Wind Speed: 16.0mph 2.0mph 8.5mph
Wind Gust: 28.0mph - -
Wind- - West
Pressure: 30.42 in 29.80 in -
Precipitation: 0.00 in    
Historical Graphs
 
 
Tabular Data for March 2, 2011
Time Temperature Dew Point Pressure Wind Wind Speed Wind Gust Humidity Daily Rainfall
00:04 26.7 °F 8.2 °F 29.98 in SSW 7.0 mph 23.0 mph 45% 0.00 in
00:09 26.6 °F 8.6 °F 29.97 in SSW 9.0 mph 21.0 mph 46% 0.00 in
00:14 26.7 °F 8.7 °F 29.96 in SSW 8.0 mph 21.0 mph 46% 0.00 in
00:19 26.9 °F 8.4 °F 29.96 in SSW 9.0 mph 24.0 mph 45% 0.00 in
00:24 27.0 °F 8.5 °F 29.96 in SSW 9.0 mph 24.0 mph 45% 0.00 in
00:29 27.0 °F 8.5 °F 29.96 in SSW 12.0 mph 22.0 mph 45% 0.00 in
00:34 27.2 °F 9.1 °F 29.95 in SW 12.0 mph 22.0 mph 46% 0.00 in
00:39 27.2 °F 9.1 °F 29.95 in SSW 8.0 mph 25.0 mph 46% 0.00 in
00:44 27.4 °F 9.3 °F 29.95 in SSW 12.0 mph 25.0 mph 46% 0.00 in
00:49 27.4 °F 8.8 °F 29.95 in SSW 11.0 mph 24.0 mph 45% 0.00 in
00:54 27.4 °F 9.3 °F 29.95 in SSW 10.0 mph 21.0 mph 46% 0.00 in
00:59 27.6 °F 9.0 °F 29.94 in SSW 11.0 mph 20.0 mph 45% 0.00 in
01:04 27.8 °F 9.2 °F 29.93 in SSW 11.0 mph 20.0 mph 45% 0.00 in
01:09 27.9 °F 9.3 °F 29.93 in SSW 11.0 mph 20.0 mph 45% 0.00 in
01:14 28.1 °F 9.0 °F 29.93 in SSW 13.0 mph 20.0 mph 44% 0.00 in
01:19 28.3 °F 9.7 °F 29.93 in SSW 11.0 mph 27.0 mph 45% 0.00 in
01:24 28.4 °F 9.8 °F 29.93 in SSW 13.0 mph 27.0 mph 45% 0.00 in
01:29 28.4 °F 10.2 °F 29.93 in SSW 10.0 mph 27.0 mph 46% 0.00 in
01:34 28.4 °F 9.8 °F 29.92 in SSW 12.0 mph 21.0 mph 45% 0.00 in
01:39 28.6 °F 9.9 °F 29.91 in SSW 13.0 mph 23.0 mph 45% 0.00 in
01:44 28.7 °F 10.0 °F 29.91 in SSW 11.0 mph 24.0 mph 45% 0.00 in
01:49 28.7 °F 10.0 °F 29.91 in SSW 11.0 mph 25.0 mph 45% 0.00 in
01:54 28.7 °F 10.0 °F 29.91 in SSW 11.0 mph 25.0 mph 45% 0.00 in
01:59 28.7 °F 10.5 °F 29.91 in SSW 11.0 mph 20.0 mph 46% 0.00 in
02:04 28.8 °F 10.1 °F 29.90 in SSW 11.0 mph 20.0 mph 45% 0.00 in
02:09 28.8 °F 10.6 °F 29.91 in SSW 10.0 mph 23.0 mph 46% 0.00 in
02:14 28.9 °F 10.7 °F 29.91 in SSW 9.0 mph 23.0 mph 46% 0.00 in
02:19 29.0 °F 10.3 °F 29.90 in SSW 11.0 mph 21.0 mph 45% 0.00 in
02:24 29.0 °F 10.8 °F 29.90 in SSW 10.0 mph 21.0 mph 46% 0.00 in
02:29 29.0 °F 10.8 °F 29.91 in SSW 11.0 mph 26.0 mph 46% 0.00 in
02:34 29.0 °F 10.8 °F 29.90 in SSW 9.0 mph 26.0 mph 46% 0.00 in
02:39 29.0 °F 10.8 °F 29.90 in SSW 12.0 mph 22.0 mph 46% 0.00 in
02:44 29.0 °F 10.8 °F 29.90 in SSW 12.0 mph 22.0 mph 46% 0.00 in
02:49 29.2 °F 11.0 °F 29.89 in SSW 13.0 mph 25.0 mph 46% 0.00 in
02:54 29.0 °F 10.8 °F 29.89 in SSW 7.0 mph 25.0 mph 46% 0.00 in
02:59 29.1 °F 10.9 °F 29.89 in SSW 9.0 mph 22.0 mph 46% 0.00 in
03:04 29.2 °F 11.0 °F 29.88 in SSW 10.0 mph 21.0 mph 46% 0.00 in
03:09 29.2 °F 11.0 °F 29.88 in South 9.0 mph 21.0 mph 46% 0.00 in
03:14 29.3 °F 11.1 °F 29.87 in SSW 10.0 mph 25.0 mph 46% 0.00 in
03:19 29.3 °F 11.1 °F 29.86 in SSW 9.0 mph 25.0 mph 46% 0.00 in
03:29 29.5 °F 11.3 °F 29.86 in SSW 13.0 mph 23.0 mph 46% 0.00 in
03:34 29.5 °F 11.7 °F 29.86 in SSW 11.0 mph 23.0 mph 47% 0.00 in
03:39 29.5 °F 11.7 °F 29.86 in SSW 10.0 mph 21.0 mph 47% 0.00 in
03:44 29.5 °F 11.7 °F 29.86 in SSW 8.0 mph 20.0 mph 47% 0.00 in
03:49 29.6 °F 11.8 °F 29.85 in SSW 8.0 mph 22.0 mph 47% 0.00 in
03:54 29.7 °F 11.9 °F 29.85 in SSW 12.0 mph 22.0 mph 47% 0.00 in
03:59 29.7 °F 11.9 °F 29.85 in SSW 9.0 mph 22.0 mph 47% 0.00 in
04:04 29.6 °F 12.3 °F 29.85 in SSW 7.0 mph 17.0 mph 48% 0.00 in
04:09 29.6 °F 12.3 °F 29.85 in SSW 9.0 mph 18.0 mph 48% 0.00 in
04:14 29.8 °F 12.5 °F 29.85 in SSW 10.0 mph 18.0 mph 48% 0.00 in
04:19 29.9 °F 12.6 °F 29.84 in SW 8.0 mph 17.0 mph 48% 0.00 in
04:24 29.9 °F 12.6 °F 29.84 in SSW 7.0 mph 18.0 mph 48% 0.00 in
04:29 30.1 °F 12.8 °F 29.84 in SSW 10.0 mph 18.0 mph 48% 0.00 in
04:34 30.1 °F 12.8 °F 29.84 in SSW 9.0 mph 22.0 mph 48% 0.00 in
04:39 30.1 °F 12.8 °F 29.84 in SSW 11.0 mph 22.0 mph 48% 0.00 in
04:44 30.1 °F 13.2 °F 29.84 in SW 9.0 mph 21.0 mph 49% 0.00 in
04:49 30.1 °F 13.2 °F 29.84 in SSW 8.0 mph 26.0 mph 49% 0.00 in
04:54 30.1 °F 13.2 °F 29.84 in SSW 9.0 mph 26.0 mph 49% 0.00 in
04:59 30.1 °F 13.2 °F 29.84 in SSW 11.0 mph 19.0 mph 49% 0.00 in
05:04 30.1 °F 13.2 °F 29.84 in SSW 10.0 mph 21.0 mph 49% 0.00 in
05:09 30.1 °F 13.7 °F 29.84 in SSW 12.0 mph 26.0 mph 50% 0.00 in
05:14 30.2 °F 13.8 °F 29.84 in SW 11.0 mph 26.0 mph 50% 0.00 in
05:19 30.2 °F 13.8 °F 29.83 in SW 8.0 mph 21.0 mph 50% 0.00 in
05:24 30.1 °F 13.7 °F 29.84 in SSW 7.0 mph 17.0 mph 50% 0.00 in
05:29 30.1 °F 13.7 °F 29.84 in SW 8.0 mph 17.0 mph 50% 0.00 in
05:34 30.2 °F 13.8 °F 29.84 in SW 10.0 mph 22.0 mph 50% 0.00 in
05:39 30.1 °F 14.1 °F 29.84 in SW 8.0 mph 22.0 mph 51% 0.00 in
05:44 30.1 °F 14.1 °F 29.84 in SW 10.0 mph 17.0 mph 51% 0.00 in
05:49 30.2 °F 13.8 °F 29.84 in SW 13.0 mph 22.0 mph 50% 0.00 in
05:54 30.3 °F 14.3 °F 29.83 in SW 13.0 mph 22.0 mph 51% 0.00 in
05:59 30.2 °F 14.2 °F 29.83 in SSW 9.0 mph 21.0 mph 51% 0.00 in
06:04 30.2 °F 14.2 °F 29.84 in SW 8.0 mph 21.0 mph 51% 0.00 in
06:09 30.2 °F 14.2 °F 29.83 in SSW 8.0 mph 21.0 mph 51% 0.00 in
06:14 30.1 °F 14.1 °F 29.83 in SW 8.0 mph 20.0 mph 51% 0.00 in
06:19 30.1 °F 14.6 °F 29.83 in SSW 8.0 mph 20.0 mph 52% 0.00 in
06:24 30.0 °F 14.5 °F 29.83 in SW 9.0 mph 18.0 mph 52% 0.00 in
06:30 30.0 °F 14.5 °F 29.83 in SSW 7.0 mph 16.0 mph 52% 0.00 in
06:34 30.1 °F 14.6 °F 29.83 in SSW 10.0 mph 21.0 mph 52% 0.00 in
06:39 30.1 °F 15.0 °F 29.83 in SW 9.0 mph 21.0 mph 53% 0.00 in
06:44 30.1 °F 15.0 °F 29.83 in SW 8.0 mph 18.0 mph 53% 0.00 in
06:54 30.0 °F 14.9 °F 29.83 in SSW 9.0 mph 18.0 mph 53% 0.00 in
06:59 30.1 °F 15.0 °F 29.83 in SSW 10.0 mph 18.0 mph 53% 0.00 in
07:04 30.1 °F 15.0 °F 29.83 in SSW 9.0 mph 18.0 mph 53% 0.00 in
07:09 30.1 °F 15.5 °F 29.83 in SSW 7.0 mph 19.0 mph 54% 0.00 in
07:14 30.0 °F 15.4 °F 29.83 in SW 5.0 mph 19.0 mph 54% 0.00 in
07:19 29.9 °F 15.3 °F 29.83 in SSW 8.0 mph 16.0 mph 54% 0.00 in
07:24 30.1 °F 15.5 °F 29.83 in SSW 5.0 mph 16.0 mph 54% 0.00 in
07:30 30.1 °F 15.5 °F 29.82 in SSW 7.0 mph 16.0 mph 54% 0.00 in
07:35 30.1 °F 15.9 °F 29.82 in SSW 5.0 mph 14.0 mph 55% 0.00 in
07:44 30.1 °F 15.9 °F 29.82 in SSW 5.0 mph 12.0 mph 55% 0.00 in
07:49 30.1 °F 15.9 °F 29.82 in SW 5.0 mph 12.0 mph 55% 0.00 in
07:54 30.1 °F 15.9 °F 29.82 in SW 6.0 mph 12.0 mph 55% 0.00 in
07:59 30.0 °F 16.2 °F 29.82 in SSW 4.0 mph 10.0 mph 56% 0.00 in
08:04 30.1 °F 16.3 °F 29.82 in SSW 7.0 mph 11.0 mph 56% 0.00 in
08:09 30.2 °F 16.4 °F 29.82 in SSW 5.0 mph 12.0 mph 56% 0.00 in
08:14 30.2 °F 16.4 °F 29.82 in SSW 5.0 mph 12.0 mph 56% 0.00 in
08:19 30.3 °F 16.5 °F 29.82 in SSW 6.0 mph 12.0 mph 56% 0.00 in
08:24 30.3 °F 16.1 °F 29.82 in SW 7.0 mph 12.0 mph 55% 0.00 in
08:29 30.3 °F 16.9 °F 29.82 in SSW 5.0 mph 13.0 mph 57% 0.00 in
08:34 30.5 °F 16.7 °F 29.82 in SSW 7.0 mph 15.0 mph 56% 0.00 in
08:39 30.5 °F 17.1 °F 29.82 in SW 5.0 mph 15.0 mph 57% 0.00 in
08:44 30.4 °F 17.4 °F 29.82 in SSW 6.0 mph 15.0 mph 58% 0.00 in
08:49 30.4 °F 16.6 °F 29.82 in SSW 8.0 mph 16.0 mph 56% 0.00 in
08:54 30.5 °F 16.7 °F 29.82 in SSW 8.0 mph 16.0 mph 56% 0.00 in
08:59 30.4 °F 17.0 °F 29.82 in SSW 4.0 mph 13.0 mph 57% 0.00 in
09:04 30.4 °F 17.0 °F 29.82 in SSW 6.0 mph 12.0 mph 57% 0.00 in
09:09 30.5 °F 17.1 °F 29.81 in SW 7.0 mph 12.0 mph 57% 0.00 in
09:14 30.6 °F 17.2 °F 29.82 in SW 7.0 mph 14.0 mph 57% 0.00 in
09:19 30.6 °F 17.6 °F 29.82 in SW 7.0 mph 14.0 mph 58% 0.00 in
09:24 30.6 °F 17.6 °F 29.81 in SSW 7.0 mph 14.0 mph 58% 0.00 in
09:30 30.7 °F 18.1 °F 29.82 in SW 5.0 mph 14.0 mph 59% 0.00 in
09:34 30.8 °F 17.8 °F 29.82 in SSW 6.0 mph 14.0 mph 58% 0.00 in
09:39 30.8 °F 18.9 °F 29.81 in SSW 7.0 mph 15.0 mph 61% 0.00 in
09:44 30.8 °F 19.7 °F 29.81 in SW 9.0 mph 15.0 mph 63% 0.00 in
09:49 30.9 °F 19.8 °F 29.81 in SW 6.0 mph 14.0 mph 63% 0.00 in
09:54 31.4 °F 19.9 °F 29.81 in SW 5.0 mph 12.0 mph 62% 0.00 in
09:59 31.5 °F 19.6 °F 29.81 in SSW 6.0 mph 12.0 mph 61% 0.00 in
10:04 31.7 °F 19.8 °F 29.81 in SW 8.0 mph 16.0 mph 61% 0.00 in
10:09 32.3 °F 20.4 °F 29.81 in SSW 6.0 mph 16.0 mph 61% 0.00 in
10:14 32.3 °F 21.1 °F 29.80 in SSW 8.0 mph 18.0 mph 63% 0.00 in
10:19 32.7 °F 21.5 °F 29.80 in SSW 4.0 mph 18.0 mph 63% 0.00 in
10:24 33.2 °F 22.0 °F 29.80 in SSW 7.0 mph 16.0 mph 63% 0.00 in
10:29 32.9 °F 21.3 °F 29.80 in SW 10.0 mph 16.0 mph 62% 0.00 in
10:34 32.9 °F 22.4 °F 29.80 in SSW 7.0 mph 16.0 mph 65% 0.00 in
10:39 33.1 °F 22.6 °F 29.80 in SW 7.0 mph 13.0 mph 65% 0.00 in
10:44 33.1 °F 23.0 °F 29.80 in SW 9.0 mph 14.0 mph 66% 0.00 in
10:49 33.0 °F 22.9 °F 29.80 in SW 9.0 mph 15.0 mph 66% 0.00 in
10:54 32.8 °F 23.1 °F 29.80 in SSW 9.0 mph 15.0 mph 67% 0.00 in
10:59 32.7 °F 23.3 °F 29.80 in SW 5.0 mph 15.0 mph 68% 0.00 in
11:04 32.5 °F 23.1 °F 29.80 in SW 8.0 mph 17.0 mph 68% 0.00 in
11:09 32.5 °F 23.5 °F 29.81 in WSW 5.0 mph 17.0 mph 69% 0.00 in
11:14 29.9 °F 22.3 °F 29.84 in NW 16.0 mph 26.0 mph 73% 0.00 in
11:19 27.6 °F 22.2 °F 29.84 in NNW 7.0 mph 26.0 mph 80% 0.00 in
11:24 26.4 °F 21.9 °F 29.85 in NW 5.0 mph 19.0 mph 83% 0.00 in
11:29 25.8 °F 21.6 °F 29.86 in NW 11.0 mph 19.0 mph 84% 0.00 in
11:34 25.7 °F 21.8 °F 29.86 in NNW 6.0 mph 18.0 mph 85% 0.00 in
11:39 25.6 °F 22.0 °F 29.86 in NNW 8.0 mph 15.0 mph 86% 0.00 in
11:44 25.6 °F 21.7 °F 29.86 in NNW 5.0 mph 17.0 mph 85% 0.00 in
11:49 25.5 °F 21.6 °F 29.86 in NNW 9.0 mph 18.0 mph 85% 0.00 in
11:54 25.7 °F 21.3 °F 29.86 in NW 11.0 mph 21.0 mph 83% 0.00 in
11:59 25.6 °F 19.4 °F 29.87 in NW 16.0 mph 28.0 mph 77% 0.00 in
12:04 25.7 °F 19.2 °F 29.86 in NNW 12.0 mph 28.0 mph 76% 0.00 in
12:09 26.0 °F 18.9 °F 29.86 in NW 10.0 mph 21.0 mph 74% 0.00 in
12:14 26.4 °F 18.3 °F 29.87 in NW 11.0 mph 22.0 mph 71% 0.00 in
12:19 26.3 °F 17.8 °F 29.87 in NW 10.0 mph 23.0 mph 70% 0.00 in
12:24 27.0 °F 18.9 °F 29.87 in NNW 10.0 mph 23.0 mph 71% 0.00 in
12:30 27.4 °F 18.6 °F 29.87 in NW 10.0 mph 19.0 mph 69% 0.00 in
12:39 28.1 °F 16.8 °F 29.87 in NW 12.0 mph 22.0 mph 62% 0.00 in
12:44 28.2 °F 15.7 °F 29.87 in WNW 13.0 mph 22.0 mph 59% 0.00 in
12:49 28.7 °F 16.6 °F 29.87 in NW 7.0 mph 20.0 mph 60% 0.00 in
12:55 29.7 °F 15.9 °F 29.88 in NW 9.0 mph 20.0 mph 56% 0.00 in
13:04 30.4 °F 16.2 °F 29.88 in NW 8.0 mph 22.0 mph 55% 0.00 in
13:09 29.7 °F 14.2 °F 29.88 in NNW 10.0 mph 22.0 mph 52% 0.00 in
13:14 30.1 °F 14.6 °F 29.88 in NNW 8.0 mph 22.0 mph 52% 0.00 in
13:19 29.3 °F 13.4 °F 29.88 in NW 7.0 mph 19.0 mph 51% 0.00 in
13:24 29.3 °F 14.3 °F 29.89 in NNW 12.0 mph 19.0 mph 53% 0.00 in
13:29 29.2 °F 14.6 °F 29.89 in NNW 6.0 mph 19.0 mph 54% 0.00 in
13:34 28.9 °F 15.2 °F 29.89 in NNW 6.0 mph 17.0 mph 56% 0.00 in
13:39 28.8 °F 15.5 °F 29.89 in NNW 9.0 mph 19.0 mph 57% 0.00 in
13:44 28.5 °F 14.8 °F 29.90 in WNW 12.0 mph 19.0 mph 56% 0.00 in
13:49 28.2 °F 14.9 °F 29.90 in NW 8.0 mph 19.0 mph 57% 0.00 in
13:54 28.1 °F 14.8 °F 29.90 in NW 5.0 mph 19.0 mph 57% 0.00 in
14:04 28.3 °F 14.6 °F 29.91 in NW 11.0 mph 19.0 mph 56% 0.00 in
14:09 27.9 °F 13.8 °F 29.92 in NW 15.0 mph 21.0 mph 55% 0.00 in
14:14 27.2 °F 13.6 °F 29.92 in NNW 7.0 mph 21.0 mph 56% 0.00 in
14:19 27.0 °F 14.2 °F 29.93 in NNW 11.0 mph 21.0 mph 58% 0.00 in
14:24 26.7 °F 13.1 °F 29.93 in NNW 12.0 mph 21.0 mph 56% 0.00 in
14:29 26.4 °F 12.8 °F 29.94 in NNW 12.0 mph 21.0 mph 56% 0.00 in
14:34 26.4 °F 13.2 °F 29.94 in NNW 8.0 mph 19.0 mph 57% 0.00 in
14:39 26.6 °F 12.6 °F 29.94 in NNW 9.0 mph 18.0 mph 55% 0.00 in
14:44 26.4 °F 12.4 °F 29.95 in NNW 9.0 mph 21.0 mph 55% 0.00 in
14:49 26.0 °F 13.2 °F 29.95 in NNW 9.0 mph 21.0 mph 58% 0.00 in
14:54 25.5 °F 12.4 °F 29.96 in NW 12.0 mph 22.0 mph 57% 0.00 in
14:59 24.9 °F 12.2 °F 29.97 in NNW 13.0 mph 23.0 mph 58% 0.00 in
15:04 24.5 °F 12.2 °F 29.97 in NW 10.0 mph 23.0 mph 59% 0.00 in
15:09 24.4 °F 12.1 °F 29.98 in NW 10.0 mph 23.0 mph 59% 0.00 in
15:14 24.4 °F 12.1 °F 29.98 in NNW 6.0 mph 22.0 mph 59% 0.00 in
15:19 24.2 °F 11.5 °F 29.99 in NNW 10.0 mph 23.0 mph 58% 0.00 in
15:24 23.8 °F 10.4 °F 29.99 in NNW 11.0 mph 23.0 mph 56% 0.00 in
15:29 23.2 °F 9.8 °F 30.00 in NNW 11.0 mph 25.0 mph 56% 0.00 in
15:34 22.8 °F 9.0 °F 30.01 in NNW 9.0 mph 25.0 mph 55% 0.00 in
15:39 22.3 °F 8.6 °F 30.01 in NW 12.0 mph 24.0 mph 55% 0.00 in
15:44 22.2 °F 8.5 °F 30.02 in NW 7.0 mph 24.0 mph 55% 0.00 in
15:49 22.1 °F 8.0 °F 30.03 in NNW 10.0 mph 19.0 mph 54% 0.00 in
15:55 21.5 °F 7.8 °F 30.03 in NNW 4.0 mph 18.0 mph 55% 0.00 in
16:04 21.1 °F 7.8 °F 30.04 in North 6.0 mph 16.0 mph 56% 0.00 in
16:09 20.9 °F 8.4 °F 30.04 in NW 7.0 mph 16.0 mph 58% 0.00 in
16:14 20.8 °F 8.3 °F 30.05 in WNW 8.0 mph 15.0 mph 58% 0.00 in
16:19 20.7 °F 8.2 °F 30.06 in NW 8.0 mph 15.0 mph 58% 0.00 in
16:24 20.4 °F 8.0 °F 30.06 in NW 6.0 mph 18.0 mph 58% 0.00 in
16:30 20.2 °F 7.4 °F 30.06 in NNW 5.0 mph 18.0 mph 57% 0.00 in
16:34 19.9 °F 7.1 °F 30.07 in WNW 13.0 mph 20.0 mph 57% 0.00 in
16:39 19.4 °F 6.6 °F 30.08 in WNW 16.0 mph 22.0 mph 57% 0.00 in
16:44 19.0 °F 5.9 °F 30.09 in NW 12.0 mph 22.0 mph 56% 0.00 in
16:49 18.9 °F 5.4 °F 30.09 in NW 10.0 mph 22.0 mph 55% 0.00 in
16:55 18.4 °F 4.9 °F 30.11 in NW 11.0 mph 23.0 mph 55% 0.00 in
16:59 17.8 °F 3.6 °F 30.11 in NW 13.0 mph 28.0 mph 53% 0.00 in
17:04 17.3 °F 3.5 °F 30.11 in NW 6.0 mph 28.0 mph 54% 0.00 in
17:09 17.1 °F 3.3 °F 30.12 in NNW 13.0 mph 18.0 mph 54% 0.00 in
17:14 16.9 °F 2.7 °F 30.12 in NW 10.0 mph 18.0 mph 53% 0.00 in
17:19 16.6 °F 2.8 °F 30.13 in NW 9.0 mph 19.0 mph 54% 0.00 in
17:24 16.4 °F 3.0 °F 30.14 in NW 6.0 mph 19.0 mph 55% 0.00 in
17:30 16.2 °F 3.2 °F 30.14 in NW 7.0 mph 20.0 mph 56% 0.00 in
17:34 16.1 °F 3.5 °F 30.14 in NW 8.0 mph 20.0 mph 57% 0.00 in
17:39 16.0 °F 3.1 °F 30.15 in NW 10.0 mph 16.0 mph 56% 0.00 in
17:44 15.8 °F 2.5 °F 30.16 in NW 13.0 mph 19.0 mph 55% 0.00 in
17:49 15.7 °F 2.0 °F 30.16 in NW 8.0 mph 21.0 mph 54% 0.00 in
17:54 15.5 °F 1.4 °F 30.17 in NW 12.0 mph 22.0 mph 53% 0.00 in
17:59 15.4 °F 1.7 °F 30.17 in NNW 11.0 mph 23.0 mph 54% 0.00 in
18:04 15.2 °F 1.1 °F 30.18 in NNW 8.0 mph 23.0 mph 53% 0.00 in
18:09 14.9 °F 0.4 °F 30.19 in NNW 9.0 mph 20.0 mph 52% 0.00 in
18:14 14.6 °F 0.2 °F 30.19 in NNW 6.0 mph 18.0 mph 52% 0.00 in
18:19 14.3 °F -0.1 °F 30.20 in NW 9.0 mph 24.0 mph 52% 0.00 in
18:24 14.0 °F -0.4 °F 30.20 in NW 8.0 mph 24.0 mph 52% 0.00 in
18:29 13.8 °F -1.0 °F 30.21 in NW 13.0 mph 20.0 mph 51% 0.00 in
18:34 13.6 °F -1.2 °F 30.21 in NW 7.0 mph 20.0 mph 51% 0.00 in
18:39 13.5 °F -1.3 °F 30.22 in NNW 7.0 mph 20.0 mph 51% 0.00 in
18:44 13.4 °F -1.4 °F 30.22 in NW 10.0 mph 21.0 mph 51% 0.00 in
18:49 13.3 °F -1.1 °F 30.23 in NW 7.0 mph 21.0 mph 52% 0.00 in
18:54 13.2 °F -1.6 °F 30.23 in NW 11.0 mph 21.0 mph 51% 0.00 in
18:59 13.2 °F -1.2 °F 30.24 in NW 6.0 mph 21.0 mph 52% 0.00 in
19:04 13.1 °F -1.7 °F 30.25 in NW 14.0 mph 24.0 mph 51% 0.00 in
19:09 12.8 °F -1.9 °F 30.25 in NNW 11.0 mph 24.0 mph 51% 0.00 in
19:14 12.5 °F -1.8 °F 30.26 in NNW 9.0 mph 23.0 mph 52% 0.00 in
19:19 12.2 °F -2.5 °F 30.26 in NNW 14.0 mph 21.0 mph 51% 0.00 in
19:24 11.9 °F -2.8 °F 30.26 in NW 9.0 mph 20.0 mph 51% 0.00 in
19:29 11.6 °F -3.1 °F 30.27 in NNW 9.0 mph 20.0 mph 51% 0.00 in
19:34 11.3 °F -3.7 °F 30.27 in NW 11.0 mph 21.0 mph 50% 0.00 in
19:39 11.1 °F -3.9 °F 30.29 in NNW 7.0 mph 21.0 mph 50% 0.00 in
19:44 10.9 °F -4.5 °F 30.28 in NNW 9.0 mph 22.0 mph 49% 0.00 in
19:49 10.9 °F -4.5 °F 30.28 in NW 10.0 mph 24.0 mph 49% 0.00 in
19:54 10.7 °F -4.7 °F 30.28 in NW 11.0 mph 24.0 mph 49% 0.00 in
19:59 10.5 °F -4.5 °F 30.29 in NW 8.0 mph 23.0 mph 50% 0.00 in
20:04 10.4 °F -4.6 °F 30.29 in NW 6.0 mph 18.0 mph 50% 0.00 in
20:09 10.2 °F -4.8 °F 30.30 in NW 8.0 mph 19.0 mph 50% 0.00 in
20:14 10.1 °F -4.9 °F 30.30 in NW 7.0 mph 19.0 mph 50% 0.00 in
20:19 9.9 °F -5.0 °F 30.30 in NW 10.0 mph 19.0 mph 50% 0.00 in
20:24 9.9 °F -5.5 °F 30.30 in NW 10.0 mph 19.0 mph 49% 0.00 in
20:29 9.9 °F -5.0 °F 30.31 in NNW 10.0 mph 18.0 mph 50% 0.00 in
20:34 9.8 °F -5.1 °F 30.31 in NNW 7.0 mph 18.0 mph 50% 0.00 in
20:39 9.7 °F -5.2 °F 30.31 in NW 9.0 mph 17.0 mph 50% 0.00 in
20:44 9.5 °F -5.4 °F 30.32 in NNW 7.0 mph 17.0 mph 50% 0.00 in
20:49 9.5 °F -5.4 °F 30.32 in NNW 9.0 mph 21.0 mph 50% 0.00 in
20:55 9.4 °F -5.1 °F 30.33 in NW 8.0 mph 21.0 mph 51% 0.00 in
20:59 9.2 °F -5.3 °F 30.33 in NNW 11.0 mph 19.0 mph 51% 0.00 in
21:04 9.1 °F -5.4 °F 30.33 in NW 7.0 mph 19.0 mph 51% 0.00 in
21:09 9.0 °F -5.5 °F 30.34 in NNW 9.0 mph 18.0 mph 51% 0.00 in
21:14 8.8 °F -5.3 °F 30.34 in NNW 9.0 mph 18.0 mph 52% 0.00 in
21:19 8.8 °F -5.3 °F 30.34 in NNW 5.0 mph 14.0 mph 52% 0.00 in
21:24 8.6 °F -5.4 °F 30.34 in NW 9.0 mph 17.0 mph 52% 0.00 in
21:30 8.6 °F -5.4 °F 30.35 in NW 9.0 mph 19.0 mph 52% 0.00 in
21:34 8.5 °F -5.5 °F 30.35 in NW 4.0 mph 19.0 mph 52% 0.00 in
21:39 8.3 °F -5.3 °F 30.34 in NNW 5.0 mph 16.0 mph 53% 0.00 in
21:44 8.2 °F -5.4 °F 30.35 in NNW 5.0 mph 16.0 mph 53% 0.00 in
21:49 8.0 °F -5.2 °F 30.35 in NNW 4.0 mph 13.0 mph 54% 0.00 in
21:54 7.6 °F -5.6 °F 30.35 in NW 2.0 mph 10.0 mph 54% 0.00 in
21:59 7.3 °F -5.5 °F 30.36 in NW 3.0 mph 7.0 mph 55% 0.00 in
22:04 7.3 °F -5.5 °F 30.36 in NNW 3.0 mph 9.0 mph 55% 0.00 in
22:09 7.2 °F -5.6 °F 30.36 in NW 3.0 mph 10.0 mph 55% 0.00 in
22:14 7.1 °F -5.3 °F 30.36 in NNW 7.0 mph 13.0 mph 56% 0.00 in
22:19 7.1 °F -5.3 °F 30.37 in NW 9.0 mph 16.0 mph 56% 0.00 in
22:24 7.2 °F -5.6 °F 30.37 in NW 6.0 mph 16.0 mph 55% 0.00 in
22:29 7.1 °F -5.7 °F 30.38 in NW 5.0 mph 14.0 mph 55% 0.00 in
22:35 6.9 °F -5.5 °F 30.38 in NNW 5.0 mph 14.0 mph 56% 0.00 in
22:44 6.5 °F -5.9 °F 30.38 in NW 6.0 mph 14.0 mph 56% 0.00 in
22:49 6.6 °F -5.8 °F 30.38 in NNW 5.0 mph 16.0 mph 56% 0.00 in
22:54 6.6 °F -6.2 °F 30.38 in NNW 4.0 mph 16.0 mph 55% 0.00 in
22:59 6.4 °F -6.0 °F 30.39 in NNW 3.0 mph 16.0 mph 56% 0.00 in
23:04 6.2 °F -6.2 °F 30.39 in NNW 4.0 mph 11.0 mph 56% 0.00 in
23:09 6.3 °F -6.1 °F 30.39 in NW 6.0 mph 15.0 mph 56% 0.00 in
23:14 6.1 °F -6.3 °F 30.40 in NNW 3.0 mph 15.0 mph 56% 0.00 in
23:19 5.8 °F -6.5 °F 30.40 in NNW 2.0 mph 15.0 mph 56% 0.00 in
23:24 5.6 °F -6.7 °F 30.40 in NNW 4.0 mph 12.0 mph 56% 0.00 in
23:29 5.6 °F -6.7 °F 30.40 in NNW 2.0 mph 12.0 mph 56% 0.00 in
23:34 5.4 °F -6.9 °F 30.40 in NNW 3.0 mph 10.0 mph 56% 0.00 in
23:39 5.4 °F -6.9 °F 30.41 in NNW 7.0 mph 13.0 mph 56% 0.00 in
23:44 5.3 °F -7.0 °F 30.41 in North 2.0 mph 13.0 mph 56% 0.00 in
23:49 5.1 °F -7.2 °F 30.41 in NNW 2.0 mph 13.0 mph 56% 0.00 in
23:54 4.9 °F -7.0 °F 30.42 in NNW 2.0 mph 12.0 mph 57% 0.00 in
23:59 4.7 °F -7.6 °F 30.42 in NNW 4.0 mph 12.0 mph 56% 0.00 in
Westford Weather
Compliments of Weather Underground

 
 
Current Radar Loop:

Copyright © WestfordWeather.net 2007-2014. All rights reserved.